EW4389 Weather Reports


Display with metric or nautical units.
time (UTC)temp
F
wind
direction
speed
MPH
gust
MPH
rain 1hr
in
rain 24hr
in
rain mn
in
humidity
%
barometer
mb
20260509204510 62 248 7.0 22.0 0.00 0.00 0.00 66 1001.1
20260509203009 63 221 11.0 21.0 0.00 0.00 0.00 63 1001.3
20260509201507 63 260 6.0 17.0 0.00 0.00 0.00 65 1001.3
20260509200006 62 264 10.0 23.0 0.00 0.00 0.00 65 1001.6
20260509194505 63 249 8.0 18.0 0.00 0.00 0.00 63 1001.7
20260509193004 62 236 9.0 21.0 0.00 0.00 0.00 65 1001.7
20260509191502 61 216 4.0 17.0 0.00 0.00 0.00 67 1001.9
20260509190105 61 260 7.0 16.0 0.00 0.00 0.00 66 1002.2
20260509184608 62 241 4.0 12.0 0.00 0.00 0.00 67 1002.3
20260509183154 61 262 7.0 16.0 0.00 0.00 0.00 67 1002.5
20260509181553 60 260 7.0 16.0 0.00 0.00 0.00 67 1002.7
20260509180048 59 282 10.0 18.0 0.00 0.00 0.00 66 1003.0
20260509174547 59 267 7.0 13.0 0.00 0.00 0.00 66 1003.0
20260509173055 58 241 7.0 14.0 0.00 0.00 0.00 65 1003.1
20260509171600 57 242 8.0 13.0 0.00 0.00 0.00 65 1003.1
20260509170042 56 262 7.0 13.0 0.00 0.00 0.00 64 1003.2
20260509164539 55 256 3.0 11.0 0.00 0.00 0.00 62 1003.3
20260509163038 55 281 7.0 13.0 0.00 0.00 0.00 64 1003.4
20260509161537 55 236 6.0 13.0 0.00 0.00 0.00 58 1003.6
20260509160036 54 256 7.0 11.0 0.00 0.00 0.00 63 1003.8
20260509154536 55 227 5.0 11.0 0.00 0.00 0.00 63 1003.8
20260509153036 54 258 6.0 14.0 0.00 0.00 0.00 63 1003.9
20260509151532 54 277 4.0 10.0 0.00 0.00 0.00 61 1003.9
20260509150033 54 242 3.0 9.0 0.00 0.00 0.00 62 1004.0
20260509144544 54 244 7.0 13.0 0.00 0.00 0.00 59 1004.0
20260509143027 53 237 5.0 14.0 0.00 0.00 0.00 60 1004.1
20260509141532 53 223 6.0 14.0 0.00 0.00 0.00 59 1004.1
20260509140022 53 219 9.0 13.0 0.00 0.02 0.00 59 1004.2
20260509134519 52 236 6.0 11.0 0.00 0.02 0.00 55 1004.4
20260509133020 51 248 3.0 12.0 0.00 0.02 0.00 59 1004.5
20260509131521 52 248 7.0 14.0 0.00 0.02 0.00 60 1004.7
20260509130015 52 244 7.0 17.0 0.00 0.06 0.00 58 1004.8
20260509124513 52 250 5.0 17.0 0.00 0.06 0.00 58 1004.9
20260509123008 51 252 5.0 9.0 0.00 0.06 0.00 56 1005.0
20260509121514 50 242 2.0 8.0 0.00 0.06 0.00 56 1004.9
20260509120003 50 225 3.0 8.0 0.00 0.08 0.00 54 1005.0
20260509114606 49 211 2.0 11.0 0.00 0.08 0.00 53 1005.0
20260509113056 48 236 5.0 11.0 0.00 0.08 0.00 53 1005.1
20260509111553 48 238 3.0 9.0 0.00 0.08 0.00 55 1005.3
20260509110052 47 243 2.0 7.0 0.00 0.08 0.00 56 1005.2
20260509104548 47 236 1.0 4.0 0.00 0.09 0.00 58 1005.3
20260509103047 46 237 0.0 7.0 0.00 0.09 0.00 59 1005.1
20260509101546 46 236 1.0 7.0 0.00 0.09 0.00 61 1005.0
20260509100052 46 236 1.0 3.0 0.00 0.09 0.00 64 1005.1
20260509094542 46 236 0.0 3.0 0.00 0.09 0.00 63 1004.9
20260509093041 46 236 0.0 8.0 0.00 0.09 0.00 61 1005.0
20260509091540 46 237 2.0 8.0 0.00 0.09 0.00 62 1005.0
20260509090037 46 242 2.0 9.0 0.00 0.09 0.00 62 1005.2
20260509084535 46 244 5.0 10.0 0.00 0.09 0.00 62 1005.4
20260509083035 45 226 3.0 9.0 0.00 0.09 0.00 63 1005.5
20260509081540 44 215 5.0 12.0 0.00 0.09 0.00 64 1005.6
20260509080025 43 252 4.0 11.0 0.00 0.09 0.00 69 1005.9
20260509074523 42 324 0.0 2.0 0.00 0.09 0.00 73 1006.0
20260509073021 42 325 0.0 0.0 0.00 0.09 0.00 73 1005.9
20260509071521 42 324 0.0 2.0 0.00 0.09 0.00 71 1006.0
20260509070019 42 324 0.0 3.0 0.00 0.09 0.00 71 1006.1
20260509064517 43 325 0.0 2.0 0.00 0.09 0.00 72 1006.3
20260509063014 42 325 0.0 4.0 0.00 0.09 0.00 70 1006.6
20260509061512 42 325 0.0 2.0 0.00 0.09 0.00 66 1006.8
20260509060012 43 325 0.0 1.0 0.00 0.09 0.00 64 1006.9
20260509054510 43 325 0.0 3.0 0.00 0.09 0.00 63 1007.2
20260509053008 43 325 0.0 3.0 0.00 0.09 0.00 65 1007.4
20260509051501 44 327 0.0 3.0 0.00 0.09 0.00 65 1007.5
20260509050101 44 327 0.0 0.0 0.00 0.09 0.00 63 1007.6
20260509044558 44 327 0.0 0.0 0.00 0.09 0.00 65 1007.8
20260509043102 44 327 0.0 0.0 0.00 0.09 0.00 66 1007.7
20260509041551 44 327 0.0 1.0 0.00 0.09 0.00 66 1007.8
20260509040053 44 327 0.0 0.0 0.00 0.09 0.00 65 1007.8
20260509034558 43 327 0.0 0.0 0.00 0.09 0.09 66 1007.9
20260509033048 43 327 0.0 0.0 0.00 0.09 0.09 63 1007.7
20260509031556 44 327 0.0 0.0 0.00 0.09 0.09 66 1007.9
20260509030046 44 327 0.0 0.0 0.00 0.09 0.09 66 1008.0
20260509024545 44 327 0.0 0.0 0.00 0.09 0.09 61 1008.0
20260509023054 44 327 0.0 0.0 0.00 0.09 0.09 66 1008.1
20260509021545 45 327 0.0 0.0 0.00 0.09 0.09 59 1008.2
20260509020049 45 327 0.0 0.0 0.00 0.09 0.09 63 1008.2
20260509014543 46 327 0.0 0.0 0.00 0.09 0.09 62 1008.1
20260509013105 47 327 0.0 0.0 0.00 0.09 0.09 64 1008.0
20260509011542 47 327 0.0 0.0 0.00 0.09 0.09 66 1007.9
20260509010042 48 327 0.0 0.0 0.00 0.09 0.09 65 1007.6
20260509004542 49 327 0.0 0.0 0.00 0.09 0.09 64 1007.4
20260509003041 50 327 0.0 2.0 0.00 0.09 0.09 56 1007.4
20260509001541 51 327 1.0 3.0 0.00 0.09 0.09 51 1007.2
20260509000040 52 327 1.0 5.0 0.00 0.09 0.09 50 1007.2
20260508234540 52 327 4.0 9.0 0.00 0.09 0.09 49 1007.2
20260508233039 53 322 3.0 9.0 0.00 0.09 0.09 50 1006.9
20260508231542 54 311 6.0 14.0 0.00 0.09 0.09 48 1006.8
20260508230051 54 290 5.0 13.0 0.00 0.09 0.09 51 1006.8
20260508224556 54 13 4.0 9.0 0.00 0.09 0.09 53 1006.7
20260508223036 54 314 4.0 10.0 0.00 0.09 0.09 55 1006.8
20260508221535 54 290 5.0 14.0 0.00 0.09 0.09 55 1006.7
20260508220034 55 315 4.0 6.0 0.00 0.09 0.09 55 1006.7
20260508214534 55 334 5.0 10.0 0.00 0.09 0.09 59 1006.7
20260508213032 55 334 7.0 11.0 0.00 0.09 0.09 55 1006.9
20260508211530 54 320 4.0 8.0 0.00 0.09 0.09 52 1007.0
20260508210032 54 339 5.0 10.0 0.00 0.09 0.09 56 1007.0